Portada
METAR-TAF:

METAR-TAF

Aeroports :

Tanabe, Japó

latitud: 33-44N, longitud: 135-23E, altitud: 105 m

Observació

L'informe es va fer fa 8 hores i 35 minuts, a les 10:00 UTC
Vent 5 kt del Nord, variant entre Oest i Nord-Est
Temperatura 15°C
Humitat 67%
Pressió 1020 hPa
Visibilitat 10 km o més
Escasses núvols a una alçada de 3500 ft
Núvols disperses a una alçada de 5000 ft
Cel ennuvolat a una alçada de 13000 ft

METAR: RJBD 261000Z 01005KT 270V040 9999 FEW035 SCT050 BKN130 15/09 Q1020

Hora: 03:35 (18:35 UTC)


TAF: manca

Observacions i pronòstics meteorològics de més de 4000 aeroports (METAR i TAF).

Les estacions disponibles són els punts grocs i vermells al mapa.

Posi el ratolí al punt desitjat per veure el nom de l'estació.

Feu clic per veure les observacions i els pronòstics meteorològics.

Per canviar el mapa: feu clic els botons verds amb una creu de color negre per apropar; al botó verd amb un guió per allunyar la imatge; o en les fletxes verdes per a mapes adjacents.


METAR-TAF: